Location: Voorhees State Park
(40.6817°N, 74.8983°W)
Time: 10:51:44
(UTC-04:00)

Daily predictions for brighter satellites

Satellite Brightness Start Highest point End
(mag) Time Altitude Azimuth Time Altitude Azimuth Time Altitude Azimuth
Cosmos 1553 Rocket 4.1 20:57:42 10° N 21:04:08 79° E 21:10:27 10° S
Tiangong 1 2.9 21:05:51 10° S 21:07:26 13° SE 21:09:02 10° ESE
Cosmos 2322 4.3 21:02:20 10° N 21:07:48 43° ENE 21:13:12 10° SE
Cosmos 1441 Rocket 3.1 21:05:41 10° S 21:09:27 75° E 21:13:12 10° NNE
SPOT 5 3.6 21:05:33 10° SE 21:09:43 36° ENE 21:14:06 10° N
Cosmos 1151 Rocket 3.7 21:06:11 10° N 21:10:15 39° ENE 21:14:18 10° SSE
Cosmos 2322 Rocket 2.6 21:04:50 10° NNW 21:10:24 65° WSW 21:15:56 10° S
Cosmos 2058 4.4 21:13:23 10° SE 21:16:20 20° E 21:19:19 10° NE
AVUM R/B 2.3 21:15:01 10° SSW 21:17:16 65° ESE 21:19:45 10° NNE
Cosmos 1980 Rocket 4.5 21:14:47 10° NW 21:18:56 21° W 21:23:06 10° SSW
Cosmos 2360 Rocket 2.5 21:14:27 10° NNW 21:20:01 55° ENE 21:25:34 10° SE
SL-16 R/B 2.8 21:15:36 10° NNW 21:21:10 57° WSW 21:26:41 10° S
Envisat 3.1 21:17:22 10° SSE 21:22:23 66° ENE 21:27:26 10° N
PSLV R/B 3.9 21:22:12 11° SE 21:24:57 36° ENE 21:27:48 10° N
ERS-1 Rocket 3.3 21:21:26 10° S 21:26:26 68° WSW 21:31:28 10° NNW
Cosmos 304 Rocket 4.1 21:22:24 10° N 21:27:08 53° ENE 21:31:32 12° SE
Cosmos 1437 3.3 21:25:54 10° SSE 21:28:59 39° E 21:32:05 10° NNE
Meteor 2-20 4.5 21:23:36 10° S 21:29:45 83° E 21:35:55 10° N
Cosmos 1908 3.2 21:26:59 10° N 21:30:53 78° E 21:34:47 10° S
Cosmos 2112 Rocket 4.4 21:28:18 10° N 21:33:24 51° ENE 21:37:55 13° SE
H-2A R/B 2.4 21:29:11 10° S 21:33:42 74° WSW 21:38:15 10° NNW
Cosmos 1777 Rocket 4.5 21:34:28 10° SSW 21:39:42 66° WNW 21:44:57 10° NNE
NOSS 3-1 (C) 3.7 21:36:39 10° S 21:42:05 42° ESE 21:48:00 10° NE
DELTA 2 R/B (1) 3.7 21:36:43 10° W 21:42:12 62° SSW 21:46:52 14° ESE
Cosmos 1674 2.8 21:39:10 10° S 21:42:59 78° W 21:46:52 10° N
ATLAS CENTAUR R/B 4.1 21:44:17 10° W 21:46:06 12° WSW 21:47:52 10° SW
Cosmos 2227 Rocket 3.9 21:45:18 13° ESE 21:46:43 14° E 21:49:27 10° ENE
Cosmos 1939 Rocket 3.8 21:47:24 10° S 21:51:11 45° W 21:54:57 10° NNW
Cosmos 1300 3.3 21:51:04 10° N 21:54:44 41° ENE 21:56:53 21° SE
Cosmos 405 3.8 21:52:45 10° NNW 21:56:18 51° W 21:59:42 11° S
Cosmos 2333 Rocket 3.8 21:52:41 10° N 21:57:10 23° NE 22:01:13 12° E
Cosmos 1437 Rocket 4.3 21:57:40 10° NNW 22:01:06 32° W 22:04:33 10° SSW
H-2A R/B 3.3 21:58:29 16° ESE 22:01:47 30° ENE 22:06:25 10° N
Terra 3.3 22:00:09 16° ESE 22:02:43 24° ENE 22:06:29 10° NNE
YAOGAN 6 2.5 22:00:52 20° SSE 22:03:18 83° ENE 22:06:56 10° N
COSMOS 2428 2.8 22:03:38 10° NNW 22:09:19 67° ENE 22:13:00 22° SE
Cosmos 1680 Rocket 3.8 22:05:05 10° NNW 22:10:17 64° WSW 22:14:23 16° S
CZ-4 SHROUD 4.3 22:08:08 15° SSW 22:10:27 39° W 22:13:25 10° NNW
CZ-4B R/B 3.5 22:07:06 10° NNE 22:12:25 84° ESE 22:17:36 10° SSW
Cosmos 2297 Rocket 3.7 22:13:15 16° ESE 22:13:51 16° E 22:17:16 10° ENE
SPOT 1/Viking Rocket 3.5 22:10:08 19° SSE 22:13:51 86° ENE 22:19:02 10° NNW
Delta 2 Rocket 3.4 22:11:17 10° WSW 22:14:31 35° S 22:15:00 33° SSE
OAO 2 Rocket 4.2 22:11:43 10° SW 22:16:20 30° SSE 22:18:12 24° SE
Cosmos 1455 4.0 22:14:40 10° NNE 22:17:20 18° ENE 22:18:08 17° E
CZ-4 R/B 3.8 22:16:41 10° NNE 22:21:39 74° ESE 22:25:20 17° S
Cosmos 2219 Rocket 2.8 22:16:23 10° N 22:21:43 42° ENE 22:24:46 23° ESE
ARGOS 3.1 22:18:17 22° SSE 22:21:55 85° ENE 22:27:21 10° NNW
Cosmos 2242 Rocket 3.9 22:17:47 10° N 22:22:10 53° E 22:24:09 29° SE
Cosmos 1898 Rocket 3.4 22:19:08 15° S 22:23:27 65° ESE 22:28:37 10° NNE
FALCON 9 R/B 4.2 21:55:52 10° WSW 22:26:51 66° S 22:33:41 14° ESE
CZ-4C R/B 3.2 22:26:40 38° SE 22:27:40 55° ENE 22:31:05 10° N
Cosmos 2150 Rocket 4.0 22:22:49 12° S 22:27:47 74° ESE 22:33:15 10° NNE
Cosmos 858 Rocket 4.4 22:25:57 17° S 22:29:57 68° ESE 22:35:08 10° NNE
Cosmos 2237 4.3 22:25:11 10° NNW 22:30:56 78° WSW 22:34:15 26° SSE
USA 245 3.3 22:32:06 33° SW 22:32:38 37° WSW 22:34:54 10° NNW
DELTA 2 DEB (DPAF) 4.1 22:31:49 32° SSE 22:33:51 73° ENE 22:38:20 10° N
CARTOSAT-1 4.0 22:34:08 33° SE 22:35:40 49° ENE 22:39:50 10° N
SL-08 RB Rocket 3.7 22:34:43 29° S 22:36:58 79° WSW 22:41:29 10° NNW
Sich 1 3.1 22:34:25 22° SSW 22:37:15 80° W 22:41:41 10° N
Cosmos 1980 4.4 22:33:29 10° N 22:38:50 42° ENE 22:41:31 26° ESE
Cosmos 1633 Rocket 3.1 22:36:53 23° SSW 22:39:32 80° W 22:43:56 10° N
Cosmos 1726 2.5 22:37:52 10° NNW 22:41:37 62° W 22:43:05 33° SSW
Cosmos 2219 4.1 22:37:22 10° SW 22:42:57 51° WNW 22:48:32 10° NNE
Tiangong 1 1.9 22:40:33 10° WSW 22:42:38 37° SW 22:42:38 37° SW
NOSS 3-1 (A) 3.4 22:39:27 10° SSW 22:45:19 89° WNW 22:51:52 10° NE
DMSP B5D2-2 4.2 22:40:39 10° NNE 22:45:48 56° E 22:47:50 34° SSE
Lacrosse 4 Rocket 3.9 22:43:31 10° NNE 22:45:59 14° NE 22:48:18 10° E
Cosmos 2333 4.3 22:44:29 10° NNW 22:50:13 73° WSW 22:52:56 32° S
Cosmos 1271 Rocket 2.7 22:46:50 10° NNW 22:50:40 81° W 22:51:39 49° S
SL-14 R/B 4.3 22:48:33 18° SW 22:51:09 44° WNW 22:55:00 10° N
Cosmos 1703 3.2 22:50:01 41° SSW 22:51:17 85° W 22:55:13 10° N
Cosmos 2237 Rocket 2.7 22:46:14 10° NNW 22:51:47 49° ENE 22:54:11 31° ESE
Cosmos 2082 3.9 22:52:45 34° SSE 22:54:55 53° ESE 23:00:28 10° NNE
USA 32 4.2 22:53:46 10° N 22:59:00 68° W 23:01:35 30° SSW
Iridium 2 3.9 23:01:04 45° SSW 23:02:05 67° W 23:05:56 10° N
Cosmos 1241 Rocket 4.4 22:59:19 25° SSW 23:03:00 66° ESE 23:09:13 10° NE
COSMOS 2455 4.0 22:57:54 10° NNW 23:03:19 33° NE 23:06:26 21° E
Cosmos 2360 Rocket 4.1 22:59:31 10° NW 23:03:32 20° W 23:07:20 11° SW
Meteor 2-10 4.3 23:00:26 10° NNW 23:06:10 76° W 23:08:39 35° S
ATLAS 2AS CENTAUR R/B 3.0 23:03:26 26° S 23:07:43 57° ESE 23:15:31 10° NE
Meteor 1-4 Rocket 3.6 23:05:28 10° NNW 23:09:01 40° W 23:09:49 35° SW
ERBS 4.0 23:12:03 24° ENE 23:12:03 24° ENE 23:13:38 10° NE
Nadezhda 1 Rocket 3.9 23:08:43 10° N 23:14:50 80° W 23:17:27 37° S
Cosmos 1933 4.0 23:16:54 10° N 23:20:46 40° ENE 23:20:46 40° ENE
Cosmos 1626 2.2 23:20:38 67° WSW 23:20:53 71° W 23:24:40 10° N
IGS 5A 3.8 23:21:56 48° SW 23:22:38 55° W 23:26:45 10° NNW
Cosmos 1937 Rocket 4.3 23:20:01 16° SW 23:23:58 50° WNW 23:29:02 10° N
COS B Rocket 4.2 23:22:40 10° NNE 23:25:49 37° ENE 23:25:49 37° ENE
ATLAS 3B R/B 3.2 23:19:57 10° NNW 23:26:47 51° NE 23:30:03 29° ESE
Cosmos 2227 Rocket 2.2 23:27:04 30° SSW 23:30:00 77° WNW 23:35:42 10° NNE
Cosmos 1470 Rocket 4.4 23:28:46 32° SW 23:30:13 44° WNW 23:34:22 10° N
Cosmos 1933 Rocket 4.4 23:29:58 32° SW 23:31:32 45° WNW 23:35:50 10° N
Okean 1-7 4.1 23:28:15 10° NNE 23:32:05 31° ENE 23:32:05 31° ENE
Cosmos 1709 Rocket 3.9 23:32:45 46° S 23:34:43 79° E 23:40:50 10° N
Cosmos 1703 Rocket 3.7 23:30:34 10° N 23:34:52 56° E 23:35:00 56° E
Cosmos 2221 Rocket 3.7 23:35:28 10° N 23:40:00 61° E 23:40:13 61° E
Terra 2.8 23:39:02 31° SW 23:40:14 36° W 23:44:38 10° NNW
Spot 4 4.5 23:39:32 40° SW 23:40:35 47° W 23:45:16 10° NNW
H-2A R/B 3.2 23:39:08 28° SW 23:41:02 36° W 23:46:00 10° NNW
Cosmos 2333 Rocket 2.5 23:36:12 10° NNW 23:41:50 57° WSW 23:43:13 45° SSW
SL-16 R/B 2.5 23:38:50 10° NNW 23:44:28 59° ENE 23:45:52 46° ESE
Cosmos 1269 Rocket 4.0 23:41:52 10° NNW 23:47:13 77° ENE 23:48:05 61° SE
NOSS 0 Rocket 4.5 23:41:48 10° NW 23:47:38 46° WSW 23:49:18 38° SSW
GEOS 3 Rocket 4.4 23:46:31 32° E 23:48:27 45° NE 23:53:23 10° NNW
Cosmos 1455 3.7 23:49:49 10° NNW 23:53:05 27° W 23:53:11 27° W
Cosmos 1900 4.3 23:48:43 10° NNW 23:53:42 72° ENE 23:54:14 65° ESE
